When you browse on this site, cookies collect data to enhance your experience and personalize the content and advertising you see.
Visit our Privacy Policy to learn more. By continuing to use the site, you agree to this use of cookies and data.
  • In Belgium
  • List of Countries
  • For 7 days
  • Water Temperature
  • Satellite Maps
  • Weather Map
  • Weather Widgets
  • user-avatar
    Login

    Hourly Weather Ostrog

    Today, 11 December, Tuesday

    Time Temperature Precipitation Wind Pressure Humidity
    00:00 -2°C° 0 mm 4 mps 737 mmHg 91%
    01:00 -2°C° 0 mm 4 mps 737 mmHg 92%
    02:00 -2°C° 0 mm 4 mps 737 mmHg 92%
    03:00 -1°C° 0 mm 3 mps 737 mmHg 93%
    04:00 -1°C° 0 mm 3 mps 738 mmHg 93%
    05:00 -1°C° 0 mm 3 mps 738 mmHg 93%
    06:00 -1°C° 0 mm 3 mps 738 mmHg 94%
    07:00 -1°C° 0 mm 3 mps 738 mmHg 94%
    08:00 -1°C° 0 mm 3 mps 739 mmHg 94%
    09:00 -1°C° 0 mm 3 mps 739 mmHg 93%
    10:00 -1°C° 0 mm 3 mps 739 mmHg 91%
    11:00 0°C° 0 mm 3 mps 740 mmHg 89%
    12:00 0°C° 0 mm 3 mps 740 mmHg 88%
    13:00 0°C° 0 mm 3 mps 740 mmHg 87%
    14:00 +1°C° 0 mm 3 mps 740 mmHg 85%
    15:00 +1°C° 0 mm 2 mps 740 mmHg 86%
    16:00 +1°C° 0 mm 2 mps 741 mmHg 87%
    17:00 +1°C° 0 mm 1 mps 741 mmHg 88%
    18:00 +1°C° 0 mm 1 mps 741 mmHg 87%
    19:00 +1°C° 0 mm 1 mps 741 mmHg 86%
    20:00 +1°C° 0 mm 1 mps 742 mmHg 85%
    21:00 +1°C° 0 mm 1 mps 742 mmHg 85%
    22:00 +1°C° 0 mm 1 mps 742 mmHg 84%
    23:00 +1°C° 0 mm 1 mps 742 mmHg 84%

    Tomorrow, 12 December, Wednesday

    Time Temperature Precipitation Wind Pressure Humidity
    00:00 +1°C° 0 mm 1 mps 742 mmHg 84%
    01:00 0°C° 0 mm 1 mps 742 mmHg 84%
    02:00 0°C° 0 mm 1 mps 742 mmHg 84%
    03:00 0°C° 0 mm 1 mps 742 mmHg 84%
    04:00 -2°C° 0 mm 2 mps 742 mmHg 85%
    05:00 -2°C° 0 mm 2 mps 742 mmHg 85%
    06:00 -2°C° 0 mm 2 mps 742 mmHg 85%
    07:00 -2°C° 0 mm 2 mps 742 mmHg 85%
    08:00 -2°C° 0 mm 2 mps 742 mmHg 85%
    09:00 -2°C° 0 mm 3 mps 742 mmHg 83%
    10:00 -2°C° 0 mm 4 mps 742 mmHg 81%
    11:00 -2°C° 0 mm 4 mps 742 mmHg 79%
    12:00 -2°C° 0.1 mm 4 mps 742 mmHg 80%
    13:00 -2°C° 0.1 mm 5 mps 742 mmHg 81%
    14:00 -1°C° 0.1 mm 5 mps 742 mmHg 83%
    15:00 -2°C° 0.3 mm 5 mps 742 mmHg 85%
    16:00 -2°C° 0.3 mm 5 mps 741 mmHg 88%
    17:00 -2°C° 0.3 mm 5 mps 741 mmHg 90%
    18:00 -3°C° 0.5 mm 6 mps 741 mmHg 91%
    19:00 -3°C° 0.5 mm 6 mps 741 mmHg 92%
    20:00 -3°C° 0.5 mm 6 mps 741 mmHg 92%
    21:00 -3°C° 0.4 mm 6 mps 741 mmHg 92%
    22:00 -3°C° 0.4 mm 6 mps 741 mmHg 92%
    23:00 -2°C° 0.4 mm 5 mps 741 mmHg 93%

    Day after tomorrow, 13 December, Thursday

    Time Temperature Precipitation Wind Pressure Humidity
    00:00 -2°C° 0.4 mm 5 mps 741 mmHg 93%
    01:00 -2°C° 0.4 mm 5 mps 740 mmHg 93%
    02:00 -2°C° 0.4 mm 5 mps 740 mmHg 94%
    03:00 -2°C° 0.5 mm 5 mps 740 mmHg 94%
    04:00 -2°C° 0.5 mm 5 mps 740 mmHg 94%
    05:00 -2°C° 0.5 mm 4 mps 740 mmHg 94%
    06:00 -2°C° 0.5 mm 4 mps 740 mmHg 94%
    07:00 -2°C° 0.5 mm 4 mps 740 mmHg 95%
    08:00 -2°C° 0.5 mm 4 mps 740 mmHg 95%
    09:00 -2°C° 0.5 mm 4 mps 740 mmHg 95%
    10:00 -2°C° 0.5 mm 4 mps 740 mmHg 94%
    11:00 -2°C° 0.5 mm 4 mps 741 mmHg 94%
    12:00 -2°C° 0.3 mm 4 mps 741 mmHg 95%
    13:00 -2°C° 0.3 mm 4 mps 741 mmHg 95%
    14:00 -1°C° 0.3 mm 4 mps 741 mmHg 96%
    15:00 -1°C° 0.2 mm 4 mps 741 mmHg 95%
    16:00 -1°C° 0.2 mm 4 mps 741 mmHg 95%
    17:00 -1°C° 0.2 mm 4 mps 741 mmHg 95%
    18:00 -2°C° 0.1 mm 4 mps 742 mmHg 95%
    19:00 -1°C° 0.1 mm 3 mps 742 mmHg 95%
    20:00 -1°C° 0.1 mm 3 mps 742 mmHg 95%
    21:00 -1°C° 0.1 mm 3 mps 743 mmHg 95%
    22:00 -1°C° 0.1 mm 3 mps 743 mmHg 95%
    23:00 -1°C° 0.1 mm 3 mps 743 mmHg 96%

    14 December, Friday

    Time Temperature Precipitation Wind Pressure Humidity
    00:00 -1°C° 0.1 mm 3 mps 743 mmHg 96%
    01:00 -1°C° 0.1 mm 3 mps 743 mmHg 96%
    02:00 -2°C° 0.1 mm 3 mps 744 mmHg 96%
    03:00 -2°C° 0 mm 3 mps 744 mmHg 96%
    04:00 -4°C° 0 mm 3 mps 744 mmHg 96%
    05:00 -4°C° 0 mm 3 mps 744 mmHg 96%
    06:00 -5°C° 0 mm 3 mps 744 mmHg 96%
    07:00 -5°C° 0 mm 3 mps 744 mmHg 96%
    08:00 -5°C° 0 mm 3 mps 744 mmHg 96%
    09:00 -4°C° 0 mm 3 mps 745 mmHg 95%
    10:00 -4°C° 0 mm 3 mps 745 mmHg 94%
    11:00 -2°C° 0 mm 3 mps 746 mmHg 94%
    12:00 -2°C° 0.1 mm 3 mps 746 mmHg 94%
    13:00 -2°C° 0.1 mm 3 mps 746 mmHg 94%
    14:00 -2°C° 0.1 mm 4 mps 746 mmHg 93%
    15:00 -2°C° 0.1 mm 3 mps 747 mmHg 94%
    16:00 -2°C° 0.1 mm 3 mps 747 mmHg 95%
    17:00 -2°C° 0.1 mm 3 mps 748 mmHg 95%
    18:00 -2°C° 0.1 mm 3 mps 748 mmHg 96%
    19:00 -2°C° 0.1 mm 2 mps 748 mmHg 96%
    20:00 -2°C° 0.1 mm 2 mps 749 mmHg 97%
    21:00 -2°C° 0 mm 2 mps 749 mmHg 97%
    22:00 -2°C° 0 mm 2 mps 749 mmHg 97%
    23:00 -2°C° 0 mm 2 mps 750 mmHg 97%

    15 December, Saturday

    Time Temperature Precipitation Wind Pressure Humidity
    00:00 -2°C° 0.1 mm 2 mps 750 mmHg 97%
    01:00 -2°C° 0.1 mm 2 mps 750 mmHg 97%
    02:00 -1°C° 0.1 mm 1 mps 750 mmHg 97%
    03:00 -1°C° 0 mm 1 mps 750 mmHg 97%
    04:00 -1°C° 0 mm 1 mps 751 mmHg 97%
    05:00 -1°C° 0 mm 1 mps 751 mmHg 97%
    06:00 -1°C° 0 mm 1 mps 751 mmHg 97%
    07:00 -1°C° 0 mm 1 mps 751 mmHg 96%
    08:00 -1°C° 0 mm 1 mps 752 mmHg 96%
    09:00 -1°C° 0 mm 1 mps 752 mmHg 95%
    10:00 0°C° 0 mm 1 mps 752 mmHg 93%
    11:00 0°C° 0 mm 1 mps 753 mmHg 92%
    12:00 0°C° 0 mm 1 mps 753 mmHg 92%
    13:00 +1°C° 0 mm 1 mps 753 mmHg 92%
    14:00 +1°C° 0 mm 1 mps 753 mmHg 92%
    15:00 0°C° 0 mm 1 mps 753 mmHg 93%
    16:00 0°C° 0 mm 1 mps 753 mmHg 94%
    17:00 -1°C° 0 mm 1 mps 753 mmHg 95%
    18:00 -1°C° 0 mm 1 mps 753 mmHg 95%
    19:00 -1°C° 0 mm 1 mps 753 mmHg 95%
    20:00 -1°C° 0 mm 1 mps 754 mmHg 96%
    21:00 -1°C° 0.1 mm 1 mps 754 mmHg 96%
    22:00 -1°C° 0.1 mm 1 mps 754 mmHg 96%
    23:00 -1°C° 0.1 mm 1 mps 754 mmHg 96%

    16 December, Sunday

    Time Temperature Precipitation Wind Pressure Humidity
    00:00 -2°C° 0 mm 1 mps 754 mmHg 96%
    01:00 -2°C° 0 mm 1 mps 753 mmHg 96%
    02:00 -3°C° 0 mm 1 mps 753 mmHg 96%
    03:00 -3°C° 0 mm 1 mps 753 mmHg 96%
    04:00 -3°C° 0 mm 1 mps 753 mmHg 96%
    05:00 -3°C° 0 mm 1 mps 753 mmHg 96%
    06:00 -3°C° 0 mm 1 mps 753 mmHg 96%
    07:00 -3°C° 0 mm 1 mps 753 mmHg 96%
    08:00 -3°C° 0 mm 1 mps 753 mmHg 96%
    09:00 -2°C° 0 mm 1 mps 754 mmHg 95%
    10:00 -2°C° 0 mm 1 mps 754 mmHg 94%
    11:00 -1°C° 0 mm 1 mps 754 mmHg 94%
    12:00 -1°C° 0 mm 1 mps 754 mmHg 93%
    13:00 -1°C° 0 mm 1 mps 753 mmHg 92%
    14:00 -1°C° 0 mm 1 mps 753 mmHg 91%
    15:00 -1°C° 0 mm 1 mps 753 mmHg 92%
    16:00 -2°C° 0 mm 1 mps 753 mmHg 93%
    17:00 -2°C° 0 mm 1 mps 753 mmHg 93%
    18:00 -2°C° 0 mm 1 mps 753 mmHg 93%
    19:00 -3°C° 0 mm 1 mps 753 mmHg 93%
    20:00 -3°C° 0 mm 1 mps 753 mmHg 93%
    21:00 -3°C° 0 mm 1 mps 753 mmHg 93%
    22:00 -4°C° 0 mm 1 mps 753 mmHg 93%
    23:00 -4°C° 0 mm 1 mps 753 mmHg 93%
    Show more